Date,TemperatureHighF,TemperatureAvgF,TemperatureLowF,DewpointHighF,DewpointAvgF,DewpointLowF,HumidityHigh,HumidityAvg,HumidityLow,PressureMaxIn,PressureMinIn,WindSpeedMaxMPH,WindSpeedAvgMPH,GustSpeedMaxMPH,PrecipitationSumIn
2013-3-1,81,73,64,22,16,8,18,12,9,30.24,30.11,10,3,22,0.00
2013-3-2,80,71,62,29,22,19,22,16,11,30.17,30.02,5,1,12,0.00
2013-3-3,68,61,51,44,33,19,78,37,17,30.04,29.89,5,1,11,0.00
2013-3-4,66,55,48,48,46,43,91,74,49,30.01,29.92,5,1,9,0.00
2013-3-5,62,52,46,49,46,43,92,81,60,30.02,29.92,7,1,12,0.00
2013-3-6,54,50,46,45,42,39,90,76,59,30.04,29.91,3,1,8,0.01
2013-3-7,54,49,45,46,42,32,94,78,45,29.91,29.75,5,2,13,0.15
2013-3-8,51,45,39,42,39,34,90,79,54,29.91,29.68,4,1,10,0.81
2013-3-9,63,52,43,42,36,30,90,58,29,30.11,29.91,6,1,14,0.01
2013-3-10,73,64,48,34,18,11,58,19,10,30.17,30.07,9,3,20,0.01
2013-3-11,76,64,53,30,24,16,33,22,13,30.10,29.98,3,1,9,0.00
2013-3-12,81,68,54,33,28,21,42,24,11,30.03,29.95,3,0,7,0.00
2013-3-13,88,76,64,40,29,25,28,19,11,30.06,29.98,2,0,10,0.00
2013-3-14,89,76,64,38,33,28,29,22,12,30.03,29.96,3,0,9,0.00
2013-3-15,80,70,61,45,37,27,54,30,18,29.98,29.88,3,0,9,0.00
2013-3-16,76,64,48,50,44,27,88,52,18,29.88,29.80,5,1,14,0.00
2013-3-17,73,63,51,49,42,25,84,49,20,29.90,29.84,9,2,22,0.00
2013-3-18,65,55,47,50,47,45,92,77,53,29.98,29.88,3,0,7,0.00
2013-3-19,69,56,48,51,48,45,92,76,47,30.03,29.95,4,0,8,0.00
2013-3-20,70,61,53,49,46,34,84,59,33,30.03,29.87,3,0,10,0.00
2013-3-21,72,64,57,48,41,13,56,44,13,29.87,29.72,7,2,20,0.00
2013-3-22,79,62,47,46,26,1,84,32,7,29.84,29.71,8,2,17,0.00
2013-3-23,73,60,47,44,36,14,65,42,19,29.93,29.82,2,0,9,0.00
2013-3-24,77,63,47,44,38,27,85,43,23,29.93,29.83,4,0,12,0.00
2013-3-25,71,62,55,41,36,31,54,38,26,29.90,29.83,1,0,6,0.00
2013-3-26,70,60,51,48,43,35,80,56,39,29.88,29.82,4,0,9,0.00
2013-3-27,68,56,48,50,47,44,92,74,43,29.95,29.84,5,1,12,0.00
2013-3-28,74,59,47,52,47,45,93,68,37,29.99,29.92,5,0,10,0.00
2013-3-29,78,64,51,50,45,35,81,54,22,30.03,29.96,4,0,14,0.00
2013-3-30,74,62,52,51,42,-100,87,55,25,30.05,29.97,5,0,11,0.00
2013-3-31,61,56,51,52,48,39,87,74,55,30.04,29.97,4,1,11,0.00